sat.trackr.live / text

‹ back to catalog

ONEWEB-0705

NORAD 61610 · 2024-188S

PAYLOAD ACTIVE UNKNOWN

§ Identity

Operator
Country
UK
Launch date
2024-10-20
Launch site
AFWTR
Launch vehicle
Mass (kg)
RCS (m²)

Purposes: comms

External: N2YO · Heavens-Above · Gunter

§ Orbital elements

Epoch: 2026-05-25T04:00:43.761024Z

Period
109.89 min
Inclination
87.8859°
Eccentricity
0.0002033
Mean motion
13.10373155 rev/d
Perigee alt
1,220.2 km
Apogee alt
1,223.3 km
Semi-major
7,599.9 km
B*
1.6714e-3
RAAN
40.8409°
Arg perigee
113.0369°
Mean anomaly
247.0973°
Rev number
7,244

§ Raw data

ONEWEB-07051 61610U 24188S   26145.16717316  .00000596  00000+0  16714-2 0  99972 61610  87.8859  40.8409 0002033 113.0369 247.0973 13.10373155 72445

JSON: /api/v1/satellites/61610 · /tle

For live sub-satellite position, see the globe view (requires WebGL).

§ Visibility from observer

Set your observer location to see the next 7 days of passes ≥ 10°. The values pass through the URL so the page stays shareable.

No JS? Fill the form by hand. The geolocation button needs JavaScript.